This is the latest recevied weather packets stored in our database for station/object KB3UMW-13. If no packets are shown the sender has not sent any weather packets the latest 10 day(s).
| Time | Temp. | Humidity | Pressure | Rain* | Wind** | Luminosity | Snow |
|---|---|---|---|---|---|---|---|
| 1777584153 | 7.22° C | 88% | 1012.5 hPa | 0 mm | - | 101 W/m² | - |
| 1777583852 | 7.22° C | 83% | 1012.5 hPa | 0 mm | - | 196 W/m² | - |
| 1777583548 | 7.22° C | 86% | 1012.3 hPa | 0 mm | - | 130 W/m² | - |
| 1777583247 | 7.22° C | 86% | 1012.3 hPa | 0 mm | - | 148 W/m² | - |
| 1777582942 | 7.22° C | 88% | 1012.1 hPa | 0 mm | - | 172 W/m² | - |
| 1777582640 | 7.22° C | 86% | 1012.1 hPa | 0 mm | - | 173 W/m² | - |
| 1777582335 | 7.22° C | 86% | 1012 hPa | 0 mm | - | 133 W/m² | - |
| 1777582033 | 7.22° C | 87% | 1012 hPa | 0 mm | - | 347 W/m² | - |
| 1777581728 | 7.78° C | 85% | 1012.1 hPa | 0 mm | - | 163 W/m² | - |
| 1777581427 | 7.78° C | 86% | 1011.9 hPa | 0 mm | - | 367 W/m² | - |
| 1777581127 | 7.78° C | 89% | 1011.9 hPa | 0 mm | - | 302 W/m² | - |
| 1777580822 | 7.78° C | 91% | 1011.9 hPa | 0 mm | - | 280 W/m² | - |
| 1777580517 | 7.78° C | 94% | 1011.7 hPa | 0 mm | - | 211 W/m² | - |
| 1777580212 | 7.78° C | 93% | 1011.7 hPa | 0 mm | - | 210 W/m² | - |
| 1777579910 | 7.78° C | 97% | 1011.7 hPa | 0 mm | - | 175 W/m² | - |
| 1777579610 | 6.67° C | 96% | 1011.7 hPa | 0 mm | - | 237 W/m² | - |
| 1777579304 | 6.67° C | 98% | 1011.8 hPa | 0 mm | - | 95 W/m² | - |
| 1777579000 | 6.67° C | 98% | 1011.6 hPa | 0 mm | - | 148 W/m² | - |
| 1777578695 | 6.67° C | 98% | 1011.7 hPa | 0 mm | - | 149 W/m² | - |
| 1777578394 | 6.11° C | 99% | 1011.9 hPa | 0 mm | - | 230 W/m² | - |
| 1777578090 | 5.56° C | 97% | 1011.6 hPa | 1.27 mm | - | 149 W/m² | - |
| 1777577787 | 5.56° C | 97% | 1011.8 hPa | 4.83 mm | - | 80 W/m² | - |
| 1777577482 | 5.56° C | 97% | 1011.8 hPa | 4.32 mm | - | 156 W/m² | - |
| 1777577180 | 5.56° C | 97% | 1011.9 hPa | 1.27 mm | - | 78 W/m² | - |
| 1777576876 | 5.56° C | 96% | 1011.9 hPa | 0.51 mm | - | 78 W/m² | - |
* Rain latest hour (hover to see other rain measurements)
** Current wind speed in m/s (hover to see current wind gust speed)